This is the latest recevied weather packets stored in our database for station/object DO7ZT-13. If no packets are shown the sender has not sent any weather packets the latest 10 day(s).
| Time | Temp. | Humidity | Pressure | Rain* | Wind** | Luminosity | Snow |
|---|---|---|---|---|---|---|---|
| 1777652423 | 22.22° C | 27% | 1025.3 hPa | 0 mm | 0.45 m/s, 277° | - | - |
| 1777652110 | 22.22° C | 31% | 1025.5 hPa | 0 mm | 0.45 m/s, 324° | - | - |
| 1777651823 | 22.22° C | 27% | 1025.5 hPa | 0 mm | 0 m/s | - | - |
| 1777651510 | 22.22° C | 28% | 1025.5 hPa | 0 mm | 0.45 m/s, 328° | - | - |
| 1777651223 | 22.22° C | 28% | 1025.6 hPa | 0 mm | 0.45 m/s, 330° | - | - |
| 1777650910 | 22.22° C | 27% | 1025.6 hPa | 0 mm | 0.89 m/s, 301° | - | - |
| 1777650623 | 22.22° C | 28% | 1025.6 hPa | 0 mm | 0.45 m/s, 306° | - | - |
| 1777650310 | 22.22° C | 29% | 1025.7 hPa | 0 mm | 0.89 m/s, 300° | - | - |
| 1777650035 | 22.22° C | 28% | 1025.7 hPa | 0 mm | 0.89 m/s, 302° | - | - |
| 1777649723 | 22.22° C | 30% | 1025.7 hPa | 0 mm | 0.45 m/s, 18° | - | - |
| 1777649411 | 22.22° C | 28% | 1025.8 hPa | 0 mm | 0.45 m/s, 276° | - | - |
| 1777649123 | 22.78° C | 26% | 1025.8 hPa | 0 mm | 0.45 m/s, 289° | - | - |
| 1777648810 | 22.22° C | 27% | 1025.8 hPa | 0 mm | 0.89 m/s, 336° | - | - |
| 1777648523 | 21.11° C | 32% | 1026 hPa | 0 mm | 0.89 m/s, 330° | - | - |
| 1777648211 | 22.22° C | 27% | 1026 hPa | 0 mm | 0.45 m/s, 328° | - | - |
| 1777647923 | 22.22° C | 30% | 1026 hPa | 0 mm | 0.89 m/s, 4° | - | - |
| 1777647611 | 22.22° C | 30% | 1026.1 hPa | 0 mm | 0.45 m/s, 324° | - | - |
| 1777647323 | 22.22° C | 28% | 1026.1 hPa | 0 mm | 0.45 m/s, 353° | - | - |
| 1777647011 | 21.11° C | 28% | 1026.1 hPa | 0 mm | 0.45 m/s, 324° | - | - |
| 1777646723 | 21.11° C | 29% | 1026.1 hPa | 0 mm | 0.89 m/s, 336° | - | - |
| 1777646123 | 22.22° C | 32% | 1026.1 hPa | 0 mm | 0.89 m/s, 306° | - | - |
| 1777645812 | 21.11° C | 29% | 1026.3 hPa | 0 mm | 0.45 m/s, 300° | - | - |
| 1777645523 | 21.11° C | 29% | 1026.3 hPa | 0 mm | 0.45 m/s, 0° | - | - |
| 1777645211 | 21.11° C | 28% | 1026.3 hPa | 0 mm | 0.89 m/s, 90° | - | - |
| 1777644923 | 22.22° C | 31% | 1026.3 hPa | 0 mm | 0.89 m/s, 0° | - | - |
* Rain latest hour (hover to see other rain measurements)
** Current wind speed in m/s (hover to see current wind gust speed)